STARLINK-35812 (66574 NORAD) Tracking and Keplerian Element Data

This shows tracking and keplerian element data for the satellite.

Feedback or suggestion? Click here.




ElementValue
Catalog66574
NameSTARLINK-35812
Epoch Orbit587
Epoch Day354.25003472
Epoch Year2025
RAAN77.1828
Inclination43.0007
Eccentricity0.0001277
Argument of Perigee266.6289
Mean Anonmoly83.4554
Mean Motion15.5416703
Decay Rate0.02874408
L11 66574U 25268T 25354.25003472 .02874408 00000+0 38256-1 0 9990
L22 66574 43.0007 77.1828 0001277 266.6289 83.4554 15.54167030 5874



Live tracking and technical data element details for STARLINK-35812 (NORAD 66574). STARLINK-35812 can be tracked NOW for your location showing map with azimuth and elevation plus other details from your city location.







IsCatalogInMostPopularTable: catalog: 66574, numindb: 11
Update: records affected: 1



GetName: 66574 STARLINK-35812

Hit Count: updated at: Tue, 10 Feb 2026 02:21:53 GMT